Tracking 18951 objects as of 21-Jan-2018
HD Live streaming from Space Station
objects crossing your sky now

FENGYUN 1C DEB

Track FENGYUN 1C DEB now!
10-day predictions


NORAD ID: 31160
Int'l Code: 1999-025BHN
Perigee: 863.7 km
Apogee: 947.0 km
Inclination: 99.3 °
Period: 103.0 minutes
Semi major axis: 7276 km
RCS: 0.0015 m2 (small)
Launch date: May 10, 1999
Source: People's Republic of China (PRC)
Launch site: Taiyaun Space Center, China (TSC)

Note: This is SATELLITE DEBRIS
aabbcc
Your satellite tracking list
Your tracking list is empty




NASA's NSSDC Master Catalog

Two Line Element Set (TLE):
1 31160U 99025BHN 18021.18236035  .00000357  00000-0  27686-3 0  9993
2 31160  99.3150  12.1176 0057278 222.7476 136.9225 13.98725147553713
Source of the keplerian elements: AFSPC